GW1094 Weather Reports


Display with metric or nautical units.
time (UTC)temp
F
wind
direction
speed
MPH
gust
MPH
rain 1hr
in
rain 24hr
in
rain mn
in
humidity
%
barometer
mb
20260502170214 48 111 1.0 1.0 0.00 0.00 0.00 73 4102.7
20260502164201 48 72 1.0 1.0 0.00 0.00 0.00 71 4102.7
20260502163656 48 81 1.0 1.0 0.00 0.00 0.00 72 4102.7
20260502163153 48 74 0.0 1.0 0.00 0.00 0.00 74 4102.7
20260502162650 47 74 1.0 1.0 0.00 0.00 0.00 73 4103.1
20260502162147 47 65 0.0 1.0 0.00 0.00 0.00 74 4103.1
20260502161644 47 102 0.0 1.0 0.00 0.00 0.00 74 4103.1
20260502161141 47 98 1.0 2.0 0.00 0.00 0.00 79 4103.1
20260502160639 47 131 1.0 1.0 0.00 0.00 0.00 81 4103.1
20260502160138 46 138 0.0 1.0 0.00 0.00 0.00 83 4103.1
20260502152051 44 108 0.0 1.0 0.00 0.00 0.00 83 4103.1
20260502151548 44 189 1.0 1.0 0.00 0.00 0.00 82 4103.4
20260502151046 43 95 1.0 2.0 0.00 0.00 0.00 83 4103.4
20260502150543 43 30 0.0 1.0 0.00 0.00 0.00 85 4103.4
20260502130428 39 92 0.0 1.0 0.00 0.00 0.00 88 4103.8
20260502123411 36 90 0.0 1.0 0.00 0.00 0.00 92 4103.8
20260502122908 36 93 0.0 0.0 0.00 0.00 0.00 91 4103.8
20260502122404 36 93 0.0 1.0 0.00 0.00 0.00 91 4103.8
20260502121902 36 92 0.0 0.0 0.00 0.00 0.00 92 4103.8
20260502121359 36 89 1.0 1.0 0.00 0.00 0.00 92 4103.8
20260502120857 36 91 0.0 0.0 0.00 0.00 0.00 92 4103.8
20260502120353 35 90 1.0 2.0 0.00 0.00 0.00 92 4103.8
20260502115850 35 93 0.0 0.0 0.00 0.00 0.00 92 4104.1
20260502115347 35 95 0.0 1.0 0.00 0.00 0.00 93 4103.8
20260502114843 35 95 1.0 1.0 0.00 0.00 0.00 92 4103.8
20260502114340 35 98 1.0 1.0 0.00 0.00 0.00 93 4103.8
20260502113837 35 120 1.0 1.0 0.00 0.00 0.00 93 4103.8
20260502113335 35 120 0.0 1.0 0.00 0.00 0.00 93 4103.8
20260502112833 35 121 1.0 1.0 0.00 0.00 0.00 92 4103.8
20260502112330 35 122 1.0 2.0 0.00 0.00 0.00 93 4103.8
20260502111828 35 122 1.0 1.0 0.00 0.00 0.00 93 4103.8
20260502111325 34 124 0.0 0.0 0.00 0.00 0.00 93 4103.8
20260502110823 34 125 1.0 1.0 0.00 0.00 0.00 93 4103.8
20260502110320 34 127 0.0 1.0 0.00 0.00 0.00 92 4103.8
20260502105818 34 132 0.0 1.0 0.00 0.00 0.00 93 4103.8
20260502105314 34 134 1.0 1.0 0.00 0.00 0.00 93 4103.8
20260502104812 34 138 0.0 0.0 0.00 0.00 0.00 93 4103.4
20260502104309 34 147 0.0 0.0 0.00 0.00 0.00 93 4103.8
20260502103806 34 152 0.0 0.0 0.00 0.00 0.00 93 4103.4
20260502103303 34 160 1.0 1.0 0.00 0.00 0.00 92 4103.8
20260502102801 34 169 1.0 2.0 0.00 0.00 0.00 91 4103.4
20260502102257 34 240 1.0 2.0 0.00 0.00 0.00 92 4103.4
20260502101755 34 252 1.0 2.0 0.00 0.00 0.00 94 4103.4
20260502101247 34 88 0.0 1.0 0.00 0.00 0.00 91 4103.8
20260502100745 34 89 0.0 1.0 0.00 0.00 0.00 91 4103.4
20260502100244 34 93 1.0 2.0 0.00 0.00 0.00 91 4103.4
20260502091218 33 72 0.0 1.0 0.00 0.00 0.00 94 4103.4
20260502090715 32 69 0.0 0.0 0.00 0.00 0.00 95 4103.4
20260502090212 32 66 0.0 0.0 0.00 0.00 0.00 95 4103.4
20260502071107 30 21 1.0 1.0 0.00 0.00 0.00 95 4103.1
20260502070605 29 29 1.0 1.0 0.00 0.00 0.00 95 4103.4
20260502065601 29 29 0.0 0.0 0.00 0.00 0.00 95 4103.4
20260502065058 29 29 0.0 0.0 0.00 0.00 0.00 95 4103.4
20260502064557 29 29 0.0 0.0 0.00 0.00 0.00 94 4103.4
20260502064054 29 29 0.0 0.0 0.00 0.00 0.00 94 4103.4
20260502063551 29 29 0.0 0.0 0.00 0.00 0.00 94 4103.4
20260502063049 29 29 0.0 0.0 0.00 0.00 0.00 94 4103.4
20260502062546 28 29 0.0 0.0 0.00 0.00 0.00 94 4103.8
20260502062044 28 29 0.0 0.0 0.00 0.00 0.00 94 4103.4
20260502061542 28 29 0.0 0.0 0.00 0.00 0.00 94 4103.4
20260502061039 28 29 1.0 1.0 0.00 0.00 0.00 94 4103.4
20260502060534 28 29 0.0 0.0 0.00 0.00 0.00 95 4103.4
20260502060031 28 29 0.0 0.0 0.00 0.00 0.00 94 4103.8
20260502055528 28 29 0.0 0.0 0.00 0.00 0.00 94 4103.4
20260502055027 29 29 0.0 0.0 0.00 0.00 0.00 93 4103.8
20260502054525 29 29 0.0 0.0 0.00 0.00 0.00 93 4103.4
20260502054022 29 29 0.0 0.0 0.00 0.00 0.00 92 4103.4
20260502053519 29 29 0.0 0.0 0.00 0.00 0.00 92 4103.4
20260502053017 29 29 0.0 0.0 0.00 0.00 0.00 91 4103.8
20260502052515 30 29 0.0 0.0 0.00 0.00 0.00 91 4103.4
20260502052013 29 29 0.0 0.0 0.00 0.00 0.00 91 4103.8
20260502051510 30 29 0.0 0.0 0.00 0.00 0.00 91 4103.4
20260502051008 30 29 0.0 0.0 0.00 0.00 0.00 91 4103.8
20260502050504 30 29 0.0 0.0 0.00 0.00 0.00 90 4103.4
20260502050001 30 29 0.0 0.0 0.00 0.00 0.00 90 4103.8
20260502045457 30 29 0.0 0.0 0.00 0.00 0.00 89 4103.8
20260502044955 30 27 0.0 0.0 0.00 0.00 0.00 90 4103.8
20260502044450 30 27 0.0 0.0 0.00 0.00 0.00 90 4103.4
20260502043948 30 27 0.0 0.0 0.00 0.00 0.00 89 4103.8
20260502043445 30 27 0.0 0.0 0.00 0.00 0.00 89 4103.8
20260502042944 31 27 0.0 0.0 0.00 0.00 0.00 89 4103.8
20260502042442 31 27 0.0 0.0 0.00 0.00 0.00 89 4103.8
20260502041939 31 26 0.0 0.0 0.00 0.00 0.00 89 4103.8
20260502041437 31 23 0.0 0.0 0.00 0.00 0.00 89 4103.8
20260502040933 31 23 0.0 0.0 0.00 0.00 0.00 89 4103.8
20260502040430 31 23 1.0 1.0 0.00 0.00 0.00 90 4103.8
20260502035926 31 23 0.0 0.0 0.00 0.01 0.01 89 4103.8
20260502035423 31 25 0.0 0.0 0.00 0.01 0.01 89 4103.8
20260502034921 31 24 0.0 0.0 0.00 0.01 0.01 89 4103.8
20260502034419 31 25 0.0 0.0 0.00 0.01 0.01 90 4103.8
20260502033917 31 25 0.0 0.0 0.00 0.01 0.01 91 4103.8
20260502033414 31 25 0.0 0.0 0.00 0.01 0.01 91 4103.8
20260502032911 31 25 0.0 0.0 0.00 0.01 0.01 91 4103.8
20260502032408 31 25 0.0 0.0 0.00 0.01 0.01 90 4103.8
20260502031905 32 25 0.0 0.0 0.00 0.01 0.01 90 4103.8
20260502031403 32 25 0.0 0.0 0.00 0.01 0.01 89 4103.8
20260502030901 32 25 0.0 0.0 0.00 0.01 0.01 89 4103.8
20260502030359 32 25 0.0 0.0 0.00 0.01 0.01 88 4103.8
20260502025856 33 25 0.0 0.0 0.00 0.01 0.01 87 4103.8
20260502025353 33 25 0.0 0.0 0.00 0.01 0.01 87 4103.8
20260502024851 33 25 0.0 1.0 0.00 0.01 0.01 86 4103.8
20260502024349 33 25 0.0 0.0 0.00 0.01 0.01 85 4103.8
20260502023847 34 25 0.0 0.0 0.00 0.01 0.01 85 4103.8
20260502023344 35 25 0.0 0.0 0.00 0.01 0.01 84 4103.8
20260502022841 35 25 0.0 0.0 0.00 0.01 0.01 84 4103.8
20260502022338 35 18 0.0 1.0 0.00 0.01 0.01 83 4104.1
20260502021835 35 20 0.0 0.0 0.00 0.01 0.01 83 4103.8
20260502021332 35 23 0.0 0.0 0.00 0.01 0.01 82 4104.1
20260502020829 35 23 0.0 0.0 0.00 0.01 0.01 82 4103.8
20260502020327 35 23 0.0 0.0 0.00 0.01 0.01 82 4103.8
20260502015824 36 23 0.0 0.0 0.00 0.01 0.01 81 4103.8
20260502015321 36 23 1.0 1.0 0.00 0.01 0.01 80 4103.8
20260502014818 36 23 0.0 0.0 0.00 0.01 0.01 79 4103.8
20260502014315 37 23 1.0 1.0 0.00 0.01 0.01 78 4103.8
20260502013811 37 28 0.0 0.0 0.00 0.01 0.01 79 4103.8
20260502013307 37 28 1.0 1.0 0.00 0.01 0.01 78 4103.8
20260502012803 37 28 0.0 0.0 0.00 0.01 0.01 78 4103.4
20260502012301 37 28 0.0 1.0 0.00 0.01 0.01 77 4103.4
20260502011758 37 21 0.0 0.0 0.00 0.01 0.01 77 4103.4
20260502011254 38 21 0.0 0.0 0.00 0.01 0.01 76 4103.4
20260502010752 38 24 0.0 0.0 0.00 0.01 0.01 75 4103.4
20260502010248 38 25 0.0 1.0 0.00 0.01 0.01 77 4103.1
20260502005745 38 24 3.0 3.0 0.00 0.01 0.01 74 4103.1
20260502005243 38 19 0.0 1.0 0.00 0.01 0.01 75 4103.4
20260502004739 38 18 0.0 1.0 0.00 0.01 0.01 75 4103.1
20260502004236 38 19 0.0 0.0 0.00 0.01 0.01 75 4103.4
20260502003734 38 21 0.0 1.0 0.00 0.01 0.01 77 4103.1
20260502003231 38 21 0.0 0.0 0.00 0.01 0.01 76 4103.1
20260502002726 39 20 0.0 0.0 0.00 0.01 0.01 75 4103.1
20260502002224 39 20 0.0 0.0 0.00 0.01 0.01 75 4103.4
20260502001721 39 20 1.0 3.0 0.00 0.01 0.01 74 4103.1
20260502001220 39 22 0.0 1.0 0.00 0.01 0.01 75 4103.1
20260502000717 39 25 3.0 3.0 0.00 0.01 0.01 73 4103.1
20260502000215 39 31 1.0 1.0 0.00 0.01 0.01 73 4103.1
20260501235710 39 25 0.0 0.0 0.00 0.01 0.01 75 4103.1
20260501235206 39 27 0.0 0.0 0.00 0.01 0.01 74 4103.1
20260501234702 39 27 0.0 0.0 0.00 0.01 0.01 75 4102.7
20260501234159 39 24 0.0 0.0 0.00 0.01 0.01 73 4103.1
20260501233657 39 24 0.0 0.0 0.00 0.01 0.01 72 4102.7
20260501233154 40 38 1.0 1.0 0.00 0.01 0.01 74 4103.1
20260501232650 40 39 0.0 1.0 0.00 0.01 0.01 78 4103.1
20260501232148 40 59 0.0 1.0 0.00 0.01 0.01 74 4103.1
20260501231645 40 48 1.0 2.0 0.00 0.01 0.01 73 4103.1
20260501231143 40 66 1.0 2.0 0.00 0.01 0.01 79 4102.7
20260501230641 40 79 1.0 1.0 0.00 0.01 0.01 80 4102.7
20260501230139 40 79 1.0 1.0 0.00 0.01 0.01 80 4102.7
20260501225637 40 80 0.0 0.0 0.00 0.01 0.01 82 4102.7
20260501225133 40 80 1.0 1.0 0.00 0.01 0.01 84 4102.7
20260501224630 40 78 0.0 0.0 0.00 0.01 0.01 83 4102.7
20260501224127 39 78 0.0 0.0 0.00 0.01 0.01 81 4102.7
20260501223623 39 79 1.0 2.0 0.00 0.01 0.01 80 4102.7
20260501223120 39 83 1.0 1.0 0.00 0.01 0.01 85 4102.4
20260501222616 40 91 1.0 2.0 0.00 0.01 0.01 89 4102.4
20260501222113 40 108 1.0 1.0 0.00 0.01 0.01 90 4102.4
20260501221610 39 77 1.0 1.0 0.00 0.01 0.01 90 4102.7
20260501221107 40 71 1.0 2.0 0.00 0.01 0.01 90 4102.4
20260501220605 40 73 1.0 1.0 0.00 0.01 0.01 91 4102.7
20260501215558 40 75 0.0 0.0 0.00 0.01 0.01 88 4102.7
20260501215053 39 75 2.0 3.0 0.00 0.01 0.01 88 4102.4
20260501214549 39 82 0.0 0.0 0.00 0.01 0.01 86 4102.4
20260501214044 40 67 1.0 1.0 0.00 0.01 0.01 85 4102.4
20260501213542 40 111 0.0 0.0 0.00 0.01 0.01 84 4102.4
20260501213038 40 111 0.0 0.0 0.00 0.01 0.01 83 4102.1
20260501212534 41 112 1.0 1.0 0.00 0.01 0.01 83 4102.1
20260501212032 41 114 0.0 0.0 0.00 0.01 0.01 83 4102.1
20260501211528 41 117 0.0 0.0 0.00 0.01 0.01 81 4102.1
20260501211026 41 117 1.0 1.0 0.00 0.01 0.01 79 4102.1
20260501210522 41 117 0.0 0.0 0.00 0.01 0.01 77 4102.1
20260501210019 41 118 0.0 1.0 0.00 0.01 0.01 79 4102.1
20260501205515 41 121 1.0 2.0 0.00 0.01 0.01 79 4102.1
20260501205014 41 122 0.0 1.0 0.00 0.01 0.01 83 4102.1
20260501204509 41 123 1.0 1.0 0.00 0.01 0.01 80 4102.1
20260501204005 41 125 0.0 0.0 0.00 0.01 0.01 83 4102.1
20260501203502 41 129 0.0 0.0 0.00 0.01 0.01 82 4102.1
20260501203000 41 121 0.0 1.0 0.00 0.01 0.01 82 4102.1
20260501202456 41 121 0.0 0.0 0.00 0.01 0.01 81 4102.1
20260501201953 41 121 0.0 0.0 0.00 0.01 0.01 83 4102.1
20260501201450 41 122 0.0 0.0 0.00 0.01 0.01 81 4102.1
20260501200947 41 122 0.0 0.0 0.00 0.01 0.01 82 4102.1
20260501200445 41 123 0.0 1.0 0.00 0.01 0.01 81 4102.1
20260501195941 42 123 0.0 1.0 0.00 0.01 0.01 82 4102.1
20260501195438 41 123 1.0 1.0 0.00 0.01 0.01 84 4102.1
20260501194933 41 124 1.0 1.0 0.00 0.01 0.01 83 4102.1
20260501194429 41 124 0.0 0.0 0.00 0.01 0.01 84 4102.1
20260501193925 41 124 0.0 0.0 0.00 0.01 0.01 82 4102.1
20260501193424 41 127 1.0 1.0 0.00 0.01 0.01 83 4102.1
20260501192921 41 127 0.0 0.0 0.00 0.01 0.01 82 4102.1
20260501192418 41 127 1.0 1.0 0.00 0.01 0.01 82 4102.1
20260501191915 41 127 1.0 1.0 0.00 0.01 0.01 82 4102.1
20260501191413 41 127 1.0 1.0 0.00 0.01 0.01 85 4101.7
20260501190910 41 128 0.0 0.0 0.00 0.01 0.01 83 4102.1
20260501190406 41 135 0.0 1.0 0.00 0.01 0.01 81 4102.1
20260501185900 41 135 0.0 0.0 0.00 0.01 0.01 81 4102.1
20260501185357 42 136 0.0 0.0 0.00 0.01 0.01 80 4101.7
20260501184853 42 137 1.0 1.0 0.00 0.01 0.01 79 4102.1
20260501184349 43 137 0.0 1.0 0.00 0.01 0.01 79 4102.1
20260501183844 43 138 0.0 0.0 0.00 0.01 0.01 80 4102.1
20260501183342 43 159 0.0 0.0 0.00 0.01 0.01 80 4101.7
20260501182838 43 160 0.0 1.0 0.00 0.01 0.01 80 4102.1
20260501182335 43 163 1.0 1.0 0.00 0.01 0.01 80 4101.7
20260501181832 42 164 1.0 2.0 0.00 0.01 0.01 80 4101.7
20260501181329 42 149 0.0 1.0 0.00 0.01 0.01 78 4102.1
20260501180826 42 169 0.0 1.0 0.00 0.01 0.01 79 4101.7
20260501180322 42 167 0.0 0.0 0.00 0.01 0.01 81 4101.7
20260501175820 42 167 0.0 0.0 0.00 0.01 0.01 84 4101.7
20260501175316 42 167 1.0 1.0 0.00 0.01 0.01 84 4101.7
20260501174813 41 167 0.0 0.0 0.00 0.01 0.01 85 4102.1
20260501174310 41 166 0.0 0.0 0.00 0.01 0.01 86 4102.1
20260501173809 41 167 0.0 0.0 0.00 0.01 0.01 86 4102.1
20260501173307 41 167 0.0 0.0 0.00 0.01 0.01 84 4102.1
20260501172801 41 167 0.0 0.0 0.00 0.01 0.01 85 4101.7
20260501172256 41 167 0.0 0.0 0.00 0.01 0.01 85 4102.1